Location: Table Mountain
(47.2500°N, 120.5778°W)
Time: 21:22:03
(UTC-07:00)

Tiangong 1 - Pass Details

Date: 09 October 2017
Orbit: 292 x 320 km, 42.8° (Epoch: 21 October)

Event Time Altitude Azimuth Distance (km) Brightness Sun altitude
Rises 20:45:19 0° 263° (W) 2,025 5.8 -24.4°
Reaches altitude 10° 20:47:27 10° 249° (WSW) 1,190 4.2 -24.7°
Enters shadow 20:47:36 11° 248° (WSW) 1,136 4.0 -24.7°
